Weather History for KJVL - November, 2012

Change the Weather History Date:

Friday, November 16, 2012

  Actual Average Record
Temperature  
Mean Temperature 38 °F -  
Max Temperature 51 °F 47 °F 69 °F (1990)
Min Temperature 26 °F 31 °F 12 °F (2014)
Degree Days  
Heating Degree Days 26    
Moisture  
Dew Point 31 °F    
Average Humidity 86    
Maximum Humidity 93    
Minimum Humidity 54    
Precipitation  
Precipitation 0.00 in - - ()
Sea Level Pressure  
Sea Level Pressure 30.41 in    
Wind  
Wind Speed 1 mph (East)    
Max Wind Speed 9 mph    
Max Gust Speed -    
Visibility 5 miles    
Events Fog    
Averages and records for this station are not official NWS values.
T = Trace of Precipitation, MM = Missing Value Source: NWS Daily Summary

Daily Weather History Graph

Daily Weather History Graph

Search for Another Location

Airport or City:

Trip Planner

Search our weather history database for the weather conditions in past years. The results will help you decide how hot, cold, wet, or windy it might be!

Date:

Astronomy

Nov. 16, 2012 Rise Set
Actual Time 6:49 AM CST 4:32 PM CST
Civil Twilight 6:18 AM CST 5:02 PM CST
Nautical Twilight 5:44 AM CST 5:36 PM CST
Astronomical Twilight 5:11 AM CST 6:10 PM CST
Moon 9:45 AM CST (11/16) 7:30 PM CST (11/16)
Length of Visible Light 10h 43m
Length of Day
9h 42m
Waxing Crescent, 12% of the Moon is Illuminated
Nov 16
Waxing Crescent
Nov 20
First Quarter
Nov 28
Full
Dec 6
Last Quarter
Dec 13
New

Hourly Weather History & Observations

Time (CST) Temp. Windchill Dew Point Humidity Pressure Visibility Wind Dir Wind Speed Gust Speed Precip Events Conditions
12:15 AM 30.2 °F - 26.6 °F 86% 30.35 in 7.0 mi Calm Calm - N/A   Clear
12:35 AM 32.0 °F - 28.4 °F 87% 30.35 in 7.0 mi Calm Calm - N/A   Clear
12:55 AM 32.0 °F - 28.4 °F 87% 30.35 in 7.0 mi Calm Calm - N/A   Clear
1:15 AM 30.2 °F - 26.6 °F 86% 30.35 in 10.0 mi Calm Calm - N/A   Clear
1:35 AM 30.2 °F - 26.6 °F 86% 30.36 in 10.0 mi Calm Calm - N/A   Clear
1:55 AM 28.4 °F - 26.6 °F 93% 30.37 in 5.0 mi Calm Calm - N/A   Clear
2:15 AM 28.4 °F - 26.6 °F 93% 30.37 in 7.0 mi Calm Calm - N/A   Clear
2:35 AM 28.4 °F - 26.6 °F 93% 30.37 in 5.0 mi Calm Calm - N/A   Clear
2:55 AM 30.2 °F - 26.6 °F 86% 30.37 in 3.0 mi Calm Calm - N/A   Clear
3:35 AM 28.4 °F - 26.6 °F 93% 30.38 in 5.0 mi Calm Calm - N/A   Clear
3:55 AM 28.4 °F - 26.6 °F 93% 30.38 in 5.0 mi Calm Calm - N/A   Clear
4:15 AM 28.4 °F - 26.6 °F 93% 30.38 in 4.0 mi Calm Calm - N/A   Clear
4:35 AM 26.6 °F - 23.0 °F 86% 30.38 in 5.0 mi Calm Calm - N/A   Clear
5:45 AM 26.6 °F - 24.8 °F 93% 30.39 in 5.0 mi Calm Calm - N/A   Clear
6:45 AM 26.6 °F - 24.8 °F 93% 30.40 in 5.0 mi Calm Calm - N/A   Clear
7:45 AM 26.6 °F - 24.8 °F 93% 30.43 in 10.0 mi Calm Calm - N/A   Clear
8:45 AM 35.6 °F 32.8 °F 32.0 °F 87% 30.44 in 5.0 mi NE 3.5 mph - N/A   Clear
9:45 AM 39.2 °F - 32.0 °F 75% 30.44 in 7.0 mi Calm Calm - N/A   Clear
10:45 AM 44.6 °F - 33.8 °F 66% 30.45 in 7.0 mi Calm Calm - N/A   Clear
11:45 AM 48.2 °F - 35.6 °F 62% 30.43 in 6.0 mi Calm Calm - N/A   Haze
1:45 PM 51.8 °F - 35.6 °F 54% 30.43 in 10.0 mi NE 4.6 mph - N/A   Clear
2:45 PM 51.8 °F - 35.6 °F 54% 30.43 in 10.0 mi ENE 4.6 mph - N/A   Clear
3:45 PM 50.0 °F - 37.4 °F 62% 30.44 in 10.0 mi NE 4.6 mph - N/A   Clear
4:45 PM 41.0 °F 36.4 °F 35.6 °F 81% 30.44 in 6.0 mi ENE 6.9 mph - N/A   Haze
5:45 PM 39.2 °F 33.0 °F 35.6 °F 87% 30.44 in 5.0 mi ENE 9.2 mph - N/A   Clear
6:45 PM 39.2 °F 33.6 °F 35.6 °F 87% 30.44 in 4.0 mi ESE 8.1 mph - N/A   Clear
7:45 PM 37.4 °F 31.4 °F 33.8 °F 87% 30.43 in 3.0 mi ESE 8.1 mph - N/A   Clear
8:15 PM 35.6 °F 30.7 °F 33.8 °F 93% 30.43 in 4.0 mi ESE 5.8 mph - N/A   Clear
8:35 PM 35.6 °F 30.7 °F 32.0 °F 87% 30.43 in 3.0 mi ESE 5.8 mph - N/A   Clear
8:45 PM 35.6 °F 30.7 °F - N/A% 30.44 in 3.0 mi ESE 5.8 mph - N/A   Clear
8:55 PM 35.6 °F 32.8 °F 33.8 °F 93% 30.44 in 3.0 mi East 3.5 mph - N/A   Clear
9:15 PM 35.6 °F 31.7 °F 32.0 °F 87% 30.44 in 3.0 mi East 4.6 mph - N/A   Clear
9:55 PM 35.6 °F 31.7 °F 33.8 °F 93% 30.44 in 2.0 mi ESE 4.6 mph - N/A   Clear
10:15 PM 33.8 °F 28.6 °F 32.0 °F 93% 30.44 in 1.8 mi ESE 5.8 mph - N/A   Mist
10:35 PM 33.8 °F - 32.0 °F 93% 30.44 in 1.5 mi Calm Calm - N/A   Mist
10:55 PM 33.8 °F 30.8 °F 32.0 °F 93% 30.45 in 1.2 mi ESE 3.5 mph - N/A   Mostly Cloudy
11:15 PM 33.8 °F 30.8 °F 32.0 °F 93% 30.45 in 1.2 mi ESE 3.5 mph - N/A   Overcast
11:35 PM 35.6 °F - 33.8 °F 93% 30.45 in 0.2 mi Calm Calm - N/A Fog Fog
11:55 PM 35.6 °F - 33.8 °F 93% 30.46 in 0.2 mi Calm Calm - N/A Fog Fog